Probability
74 94 100 97 100 100 100 100 100 100 100 100 100 100 100 100 100 100 100 100 100 100 100 97 100 100 100 100 97 90 94 94 90 94 94 94 90 90 90 84 77 65 90
87 94 100 100 100 100 100 100 100 100 100 100 100 100 100 100 100 100 100 100 100 100 97 97 97 97 97 90 94 94 97 97 97 94 94 94 90 90 87 90 84 74 90
87 94 100 100 100 100 100 100 100 100 100 100 100 100 100 100 100 100 100 100 97 97 97 90 87 90 94 90 94 97 97 97 97 94 90 58 81 87 94 94 94 90 87
94 97 100 100 100 100 100 100 100 100 100 100 100 100 100 100 100 100 100 100 100 97 97 81 87 87 94 94 97 97 97 97 97 68 16 45 65 90 94 94 94 90 84
90 97 100 100 100 100 100 100 100 100 100 100 100 100 100 100 100 100 100 100 100 94 94 90 84 87 90 94 97 97 97 90 87 52 19 26 65 94 94 94 87 84 81
94 100 100 100 100 100 100 100 100 100 100 100 100 100 100 100 100 100 100 100 100 97 97 90 87 84 87 84 90 87 90 81 45 29 29 42 74 94 94 90 90 87 84
94 100 100 100 100 100 100 100 100 100 100 100 100 100 100 100 100 100 100 100 100 97 94 94 87 84 81 81 84 81 84 77 13 13 32 42 81 94 90 87 87 87 84
100 100 100 100 100 100 100 100 100 100 100 100 100 100 100 100 100 97 97 97 97 97 97 94 87 81 81 81 87 77 84 74 39 16 35 52 90 90 90 90 87 87 81
97 100 100 100 100 100 100 100 100 100 100 100 100 100 100 100 100 97 97 94 94 94 94 84 84 84 84 81 74 77 84 81 13 13 32 58 90 90 84 84 84 84 77
94 97 100 100 100 100 100 100 100 100 100 100 100 100 100 100 100 97 97 94 94 94 90 87 81 81 84 81 74 77 74 52 6 19 23 68 87 84 81 77 81 81 81
90 94 94 94 94 100 100 100 100 100 100 100 100 100 100 97 94 97 94 94 94 94 90 90 84 77 81 77 74 81 42 6 6 13 26 77 84 84 84 77 74 74 77
84 84 87 90 90 94 97 97 97 100 100 100 97 97 90 74 74 90 94 97 94 94 94 90 90 87 68 16 16 52 3 3 10 13 35 94 84 81 84 81 77 74 71
77 87 84 84 84 87 87 90 94 94 94 94 87 84 68 65 68 68 74 94 81 84 65 74 74 48 26 10 6 3 0 0 3 16 39 97 87 81 77 74 71 71 65
84 87 90 77 81 77 77 84 87 81 87 84 77 77 58 52 45 39 42 52 58 39 29 35 23 19 16 10 6 3 0 0 3 23 39 97 90 84 84 77 74 74 65
71 81 81 77 74 74 71 71 87 68 74 77 81 71 52 45 29 32 35 32 32 16 19 16 13 13 13 6 6 6 3 6 6 16 39 87 90 90 87 84 81 71 68
71 74 71 68 71 74 81 74 81 74 81 65 71 74 55 42 32 26 26 29 19 19 16 19 13 16 10 6 0 3 6 6 6 13 29 65 94 94 87 84 81 81 68
65 71 71 68 77 71 74 81 84 81 84 65 68 77 61 48 26 23 26 23 19 16 16 13 13 6 10 6 6 3 0 3 3 16 16 29 55 94 94 90 84 71 68
71 71 74 77 71 74 71 84 77 81 74 71 68 65 58 45 32 16 19 19 23 23 16 19 6 3 3 0 0 3 6 6 6 10 16 19 19 39 65 94 87 87 77
74 77 77 84 81 81 68 71 77 77 77 71 71 58 45 45 32 26 23 23 26 16 6 16 10 10 6 0 3 0 0 0 6 3 6 10 6 3 6 52 84 87 81
74 74 71 77 81 77 74 71 71 71 71 68 61 55 55 55 42 29 23 23 19 16 10 10 10 10 3 0 3 3 0 0 0 3 0 0 3 3 0 3 35 68 81
81 87 77 77 81 74 77 74 71 65 58 61 58 65 55 48 39 35 45 26 16 19 10 10 10 10 3 0 3 0 0 0 0 0 0 0 0 3 0 0 0 3 16
94 90 87 84 84 77 74 68 58 65 52 48 48 52 52 58 45 35 32 23 19 16 10 10 10 6 6 3 0 0 0 0 0 0 0 0 0 0 3 0 0 0 0
84 84 87 87 84 84 74 65 52 55 52 45 39 48 45 52 48 32 23 26 19 16 10 6 6 6 6 3 0 0 0 0 0 0 0 0 0 0 0 0 0 0 0
84 84 84 81 77 74 74 68 58 55 48 35 35 29 39 45 52 35 26 19 16 13 10 6 3 3 3 0 0 0 0 0 0 0 0 0 0 0 0 0 0 0 0
77 77 74 74 77 65 65 61 48 45 32 23 19 26 23 26 32 39 23 19 16 6 6 6 3 3 3 3 0 0 0 0 0 0 0 0 0 0 0 0 0 0 0
77 77 71 71 68 68 61 58 48 39 29 26 19 23 19 16 23 29 23 10 6 6 6 6 6 3 3 3 0 0 0 0 0 0 0 0 0 0 0 0 0 0 0
Height
5896 5896 5896 5896 5897 5897 5898 5899 5899 5899 5900 5900 5899 5899 5899 5899 5898 5898 5898 5897 5897 5896 5896 5896 5896 5896 5896 5896 5895 5895 5895 5895 5894 5894 5894 5894 5893 5893 5893 5892 5892 5892 5892
5897 5897 5898 5898 5898 5899 5900 5900 5900 5901 5901 5901 5901 5901 5900 5900 5900 5899 5899 5898 5898 5897 5897 5897 5897 5897 5897 5897 5897 5896 5896 5896 5896 5895 5895 5895 5895 5894 5894 5894 5894 5894 5894
5898 5898 5899 5899 5900 5900 5901 5901 5902 5902 5902 5902 5902 5902 5902 5901 5901 5900 5900 5899 5899 5898 5898 5898 5898 5898 5898 5898 5898 5897 5897 5897 5897 5896 5896 5896 5896 5895 5895 5895 5895 5895 5895
5898 5899 5899 5900 5901 5901 5902 5902 5903 5903 5903 5904 5903 5903 5903 5902 5902 5901 5901 5900 5900 5900 5899 5899 5899 5899 5899 5899 5899 5898 5898 5898 5898 5898 5898 5897 5897 5897 5897 5897 5897 5897 5897
5899 5900 5900 5900 5901 5902 5902 5903 5903 5904 5904 5904 5904 5904 5904 5904 5903 5903 5902 5901 5901 5901 5900 5900 5900 5900 5900 5900 5900 5899 5899 5899 5899 5899 5899 5899 5899 5898 5898 5898 5898 5898 5898
5900 5900 5900 5901 5902 5902 5903 5903 5904 5904 5905 5905 5905 5905 5905 5905 5904 5904 5903 5903 5902 5902 5901 5901 5901 5901 5901 5901 5900 5900 5900 5900 5900 5900 5900 5900 5900 5900 5900 5900 5899 5899 5899
5900 5900 5901 5901 5902 5902 5903 5903 5904 5905 5905 5906 5906 5906 5906 5906 5905 5905 5904 5903 5903 5903 5902 5902 5902 5902 5901 5901 5901 5901 5901 5901 5901 5901 5901 5901 5901 5901 5901 5901 5901 5900 5900
5900 5901 5901 5902 5902 5903 5903 5904 5904 5905 5905 5906 5906 5906 5906 5906 5906 5905 5905 5904 5904 5903 5903 5903 5903 5902 5902 5902 5902 5902 5902 5902 5902 5902 5902 5902 5902 5902 5902 5902 5901 5901 5901
5901 5901 5901 5902 5902 5903 5903 5903 5904 5905 5905 5906 5906 5906 5906 5906 5906 5906 5905 5905 5904 5904 5904 5903 5903 5903 5903 5903 5903 5903 5903 5903 5903 5903 5903 5902 5902 5902 5902 5902 5902 5902 5901
5901 5901 5901 5901 5902 5902 5903 5903 5904 5904 5905 5905 5906 5906 5906 5906 5906 5906 5905 5905 5905 5904 5904 5904 5904 5904 5904 5904 5904 5903 5903 5903 5903 5903 5903 5903 5903 5903 5902 5902 5902 5902 5902
5902 5901 5901 5901 5901 5902 5902 5903 5903 5904 5904 5905 5905 5905 5906 5906 5906 5906 5905 5905 5905 5904 5904 5904 5905 5905 5905 5905 5904 5904 5904 5904 5904 5904 5904 5903 5903 5903 5903 5903 5902 5902 5902
5902 5901 5901 5900 5900 5901 5901 5902 5902 5903 5903 5904 5904 5905 5905 5905 5905 5905 5905 5905 5905 5905 5905 5905 5905 5905 5905 5905 5905 5904 5904 5904 5904 5904 5904 5904 5904 5903 5903 5903 5902 5902 5902
5901 5901 5901 5900 5900 5900 5900 5901 5901 5902 5902 5903 5903 5904 5904 5904 5904 5905 5905 5905 5905 5904 5905 5905 5905 5905 5905 5905 5905 5904 5904 5903 5904 5904 5904 5904 5904 5903 5903 5903 5902 5902 5901
5901 5901 5900 5900 5899 5899 5899 5899 5900 5900 5901 5901 5902 5902 5903 5903 5904 5904 5904 5904 5904 5904 5904 5905 5905 5905 5905 5905 5905 5904 5904 5904 5904 5904 5904 5904 5904 5903 5903 5903 5902 5902 5901
5901 5901 5900 5899 5899 5898 5898 5898 5898 5899 5899 5900 5900 5901 5902 5902 5903 5903 5904 5904 5904 5904 5904 5904 5905 5905 5905 5905 5905 5905 5905 5904 5904 5904 5904 5904 5904 5903 5903 5902 5902 5901 5901
5901 5900 5900 5899 5898 5897 5897 5897 5897 5897 5898 5898 5899 5899 5900 5901 5901 5902 5902 5903 5903 5903 5903 5904 5904 5904 5905 5905 5905 5905 5905 5904 5904 5904 5904 5904 5903 5903 5902 5902 5901 5901 5900
5900 5899 5898 5898 5897 5896 5896 5895 5895 5895 5896 5896 5897 5898 5898 5899 5900 5901 5901 5901 5902 5902 5903 5903 5903 5903 5904 5904 5905 5905 5904 5904 5904 5904 5904 5904 5903 5903 5902 5902 5901 5901 5900
5899 5898 5897 5897 5896 5895 5894 5893 5893 5893 5894 5894 5895 5896 5896 5897 5898 5899 5899 5900 5901 5901 5902 5902 5902 5903 5903 5904 5904 5904 5904 5904 5903 5903 5903 5903 5903 5902 5902 5902 5901 5900 5900
5898 5897 5896 5895 5894 5893 5892 5892 5892 5892 5892 5892 5892 5893 5894 5894 5895 5896 5897 5898 5898 5899 5900 5901 5901 5902 5902 5903 5903 5903 5903 5903 5903 5903 5902 5902 5902 5902 5902 5901 5901 5900 5900
5897 5896 5894 5893 5892 5891 5890 5890 5889 5889 5889 5889 5890 5890 5891 5892 5893 5894 5895 5895 5896 5897 5898 5899 5900 5901 5901 5902 5902 5902 5902 5902 5902 5902 5902 5902 5901 5901 5901 5900 5900 5900 5899
5895 5894 5893 5892 5890 5889 5888 5887 5886 5886 5886 5886 5886 5887 5888 5888 5889 5891 5892 5893 5894 5895 5896 5897 5898 5898 5899 5900 5901 5901 5901 5901 5901 5901 5901 5901 5900 5900 5900 5900 5899 5899 5898
5893 5892 5890 5889 5888 5887 5886 5885 5884 5883 5883 5883 5883 5884 5884 5885 5886 5887 5889 5890 5891 5892 5893 5894 5895 5896 5897 5898 5899 5899 5900 5900 5900 5900 5900 5900 5899 5899 5899 5898 5898 5898 5897
5890 5890 5888 5887 5886 5885 5883 5882 5881 5880 5879 5879 5880 5880 5880 5881 5883 5884 5885 5887 5888 5889 5890 5891 5893 5894 5895 5896 5896 5897 5898 5898 5898 5899 5898 5898 5898 5898 5897 5897 5897 5896 5896
5888 5887 5886 5885 5883 5882 5880 5879 5878 5877 5876 5876 5875 5876 5877 5878 5878 5880 5881 5883 5884 5886 5887 5888 5890 5891 5892 5893 5894 5894 5895 5896 5896 5896 5896 5896 5896 5896 5895 5895 5894 5894 5894
5886 5885 5883 5882 5880 5878 5876 5875 5874 5873 5872 5872 5872 5873 5874 5874 5875 5877 5878 5879 5880 5882 5884 5885 5887 5888 5889 5890 5890 5891 5892 5893 5893 5893 5893 5894 5894 5893 5893 5893 5892 5892 5891
5883 5882 5880 5879 5877 5876 5873 5872 5870 5870 5870 5869 5869 5870 5870 5871 5872 5873 5874 5876 5877 5878 5880 5881 5883 5884 5885 5886 5887 5888 5889 5889 5890 5890 5890 5890 5890 5890 5890 5889 5889 5889 5888
Wind_Speed
7 8 7 7 7 6 6 5 5 4 4 4 4 4 4 5 5 5 6 6 6 6 7 7 7 7 7 7 8 7 8 8 8 8 9 9 9 9 9 9 9 9 8
6 7 7 6 6 5 5 4 4 4 4 3 3 3 3 4 4 5 5 5 5 5 6 6 6 6 6 7 7 7 7 8 8 8 8 9 9 9 9 9 9 8 8
6 6 6 5 5 4 4 3 3 3 3 3 2 2 2 3 3 3 4 4 4 5 5 5 5 5 6 6 6 6 7 7 7 7 8 8 8 8 8 8 8 8 8
5 5 5 5 4 4 3 2 2 2 2 3 3 2 2 3 3 3 3 4 4 4 4 4 4 5 5 5 5 6 6 6 7 7 7 7 7 7 8 7 7 7 7
4 4 4 3 3 3 2 2 1 1 2 2 2 2 2 2 3 3 3 3 3 3 3 3 4 4 4 5 5 5 6 6 6 6 7 6 6 7 7 6 6 7 7
3 3 2 2 2 2 1 1 1 0 1 1 2 2 2 2 2 2 3 3 2 2 3 3 3 4 4 4 5 5 5 5 5 6 6 5 5 5 6 6 6 6 6
3 2 2 2 1 1 1 1 1 0 0 1 1 2 2 2 2 3 3 3 2 2 2 3 3 3 4 4 4 4 4 4 4 4 4 4 4 4 4 4 5 5 5
4 2 1 1 1 1 1 1 1 1 1 1 1 2 2 2 2 3 3 3 3 2 2 2 3 3 4 4 4 4 4 4 3 4 4 3 3 3 3 3 3 4 4
3 2 1 0 1 1 1 2 1 2 2 1 2 2 2 3 3 3 3 3 3 2 2 2 3 3 3 3 4 4 4 3 3 4 3 3 2 2 2 2 2 2 3
4 3 2 1 1 2 2 2 2 2 2 2 2 2 3 3 3 3 3 3 2 2 1 1 2 2 3 3 3 3 3 3 3 3 2 2 2 2 2 1 1 1 1
4 3 2 2 1 2 3 3 3 3 3 3 3 3 3 3 3 3 3 3 2 2 2 1 1 2 2 2 2 3 3 3 2 2 2 2 1 1 1 1 0 0 1
5 4 3 2 1 2 3 4 4 4 3 3 4 4 4 4 3 3 3 3 2 2 2 1 0 1 1 2 2 2 2 2 2 2 1 1 1 1 0 0 1 1 1
6 5 4 4 2 2 3 4 4 4 4 4 4 4 4 4 3 3 3 2 2 2 2 2 1 0 1 1 1 1 1 1 1 1 1 1 0 1 1 1 1 1 1
6 5 5 4 3 2 3 4 4 5 5 5 5 5 4 4 4 3 3 3 2 2 2 2 2 1 0 1 1 1 1 1 0 0 0 0 0 1 1 1 1 1 1
6 6 5 4 4 3 3 4 5 6 6 5 6 6 6 5 5 5 5 4 4 3 3 3 3 2 1 1 1 1 1 1 1 1 1 1 1 1 1 2 2 2 2
5 5 5 4 4 4 4 4 5 6 7 7 7 8 8 7 7 6 6 5 5 4 3 3 3 2 2 2 2 2 2 1 1 1 1 1 1 1 1 1 1 1 2
5 5 5 5 4 4 4 4 6 6 7 8 8 9 9 9 8 8 7 6 6 5 4 4 4 3 3 2 3 3 2 2 2 2 2 2 2 2 1 1 1 1 1
6 6 6 5 5 5 5 5 6 8 8 8 8 9 10 10 10 10 9 8 8 7 6 6 5 5 4 4 4 4 3 3 3 3 3 3 3 2 2 2 2 1 1
7 7 6 7 7 7 6 5 6 7 9 9 9 10 11 11 11 11 10 10 9 8 8 7 7 6 5 5 5 5 4 3 4 4 4 4 4 3 3 3 2 2 2
8 7 7 8 9 8 8 7 6 7 9 10 11 11 11 11 12 12 11 11 11 10 9 9 9 8 7 6 6 6 5 5 4 5 4 4 4 4 3 3 3 3 3
8 9 9 9 10 10 10 10 9 8 9 10 11 12 11 11 12 13 13 12 12 12 11 11 11 10 9 8 8 8 7 6 6 6 6 5 5 5 5 4 4 4 3
10 10 9 10 10 11 11 11 10 9 9 11 11 12 12 12 12 13 14 13 13 13 13 12 12 12 11 10 10 9 8 8 7 7 7 7 7 7 7 6 6 5 5
10 10 10 10 11 12 12 12 11 10 10 11 13 13 13 13 14 14 15 15 15 15 14 14 13 13 13 12 12 11 10 10 9 9 9 9 9 9 8 8 8 7 7
11 11 11 11 13 13 13 12 12 11 12 12 12 13 13 13 14 15 15 15 15 16 16 16 15 15 14 14 14 13 12 12 11 11 10 11 10 10 10 10 10 10 9
11 12 13 13 14 14 13 13 13 12 11 11 11 12 12 12 13 14 15 16 16 17 18 17 17 17 16 16 16 15 15 14 14 13 12 12 12 12 12 12 12 11 11
12 13 13 14 14 14 13 13 12 11 10 10 10 11 11 12 13 14 15 17 16 17 18 19 19 18 18 17 17 17 17 16 16 15 15 15 15 14 14 14 14 14 14
Wind_Direction
101 102 102 99 93 86 80 74 70 60 59 64 69 72 73 74 75 78 78 79 81 84 87 90 90 89 90 92 93 94 94 94 93 91 91 90 90 89 89 88 87 85 87
107 106 107 104 101 96 87 78 68 56 52 54 57 62 68 72 71 71 71 71 75 80 84 87 88 89 89 89 92 92 92 93 96 95 94 91 89 88 88 87 86 86 88
107 109 111 108 102 100 96 84 69 50 43 38 38 44 58 63 63 66 63 63 69 74 78 82 85 87 86 88 92 92 91 95 98 98 95 92 89 87 86 86 86 87 89
107 111 112 110 105 102 100 88 70 44 30 22 19 23 33 44 46 49 52 54 62 67 72 76 83 85 84 87 91 93 94 99 99 97 95 91 89 87 85 85 85 89 89
106 112 119 119 112 110 112 107 89 42 20 13 9 10 16 23 22 30 39 44 51 59 67 74 84 81 80 84 89 92 92 96 100 95 93 92 90 88 87 87 88 90 90
99 113 127 140 126 119 136 142 135 89 6 3 359 353 353 355 357 10 26 32 43 49 57 71 84 79 77 83 89 94 95 93 95 92 90 91 91 93 92 91 92 92 90
72 98 117 132 144 152 165 169 159 143 341 337 340 338 330 335 340 347 4 9 17 30 52 64 80 80 77 78 86 93 95 95 92 90 89 90 93 95 99 98 96 92 91
48 53 96 147 178 202 201 204 191 204 259 285 301 316 318 319 333 340 348 357 360 16 40 58 74 79 79 77 86 93 98 96 90 89 88 90 98 99 102 108 103 95 97
37 28 26 349 222 220 215 221 220 235 253 264 280 297 303 307 324 337 338 344 354 8 28 57 70 79 78 81 89 92 96 96 90 89 83 90 101 107 108 111 108 104 103
32 22 6 325 270 226 223 230 233 247 257 259 266 282 295 299 312 329 332 337 345 354 10 51 69 77 76 82 92 95 96 97 95 89 80 89 97 106 110 105 107 115 118
30 19 4 332 294 239 229 234 238 247 254 263 268 282 283 288 301 318 319 323 327 339 6 33 50 72 74 86 98 104 100 101 95 94 92 93 90 105 113 89 70 97 139
29 24 9 339 310 261 239 235 239 244 253 271 276 273 270 274 284 301 307 312 314 318 315 312 352 41 70 101 115 119 116 106 88 95 94 91 79 87 95 329 318 304 242
28 22 16 6 329 286 259 239 235 238 244 262 270 261 263 266 270 286 298 300 301 300 292 280 278 319 98 118 131 141 143 146 106 97 106 103 71 9 352 325 311 308 263
25 20 12 357 343 317 275 250 240 241 247 252 257 254 257 259 262 271 281 279 282 282 273 254 253 271 147 128 145 176 179 179 127 24 159 135 359 346 333 323 305 296 285
27 22 14 355 347 323 288 262 249 246 241 244 249 245 246 253 254 258 273 266 266 277 264 250 247 253 230 189 180 190 198 250 247 307 243 268 305 315 311 295 291 292 288
19 14 10 357 348 335 310 273 259 253 248 245 243 239 240 246 248 254 263 256 256 260 243 246 247 253 236 210 207 210 211 231 265 281 279 282 298 306 309 294 287 291 290
2 354 355 358 351 334 311 279 258 250 248 248 241 239 239 242 241 245 250 247 248 253 246 237 241 242 233 215 216 222 220 228 255 267 274 281 287 290 287 274 282 290 301
340 340 346 350 343 330 316 284 268 251 246 245 242 240 242 242 239 239 241 243 244 243 236 232 236 235 229 229 232 226 218 234 253 254 259 263 273 272 266 264 260 265 270
327 328 334 336 333 329 325 303 278 262 252 248 245 243 245 243 239 237 238 238 237 238 234 230 233 235 235 239 240 239 231 232 243 251 253 257 260 263 263 262 257 262 265
324 325 323 326 327 322 318 314 301 279 258 252 248 249 247 244 242 240 239 237 234 232 231 228 230 233 236 240 237 236 235 238 240 246 252 255 250 251 254 257 258 261 268
318 319 318 321 321 319 318 317 308 294 265 254 249 246 243 241 243 241 241 238 234 232 229 227 229 231 235 238 237 236 236 240 244 248 250 251 249 248 247 251 256 257 264
313 315 316 317 316 315 315 312 306 292 276 258 251 246 245 243 244 242 242 239 235 231 229 229 230 232 234 234 235 236 237 242 248 250 249 249 248 249 249 250 254 252 254
307 310 313 314 313 312 310 307 301 289 284 270 258 251 251 247 245 243 241 238 234 232 231 231 232 233 235 235 236 238 242 244 249 251 252 252 252 254 255 255 260 257 254
305 305 309 308 308 307 303 301 296 290 281 271 261 253 252 253 245 242 240 236 237 234 232 232 234 235 236 238 239 241 245 247 248 252 253 253 254 254 255 257 260 261 261
306 307 307 307 307 306 300 297 294 287 276 263 257 253 250 250 243 241 242 240 240 235 233 234 238 239 240 241 241 244 248 249 249 250 251 253 255 257 258 257 258 259 260
310 310 309 308 308 307 303 294 292 284 274 262 255 252 250 252 247 244 246 241 237 234 235 238 240 240 242 242 244 247 249 251 252 252 253 254 255 256 259 260 258 258 259